TimeMST,TemperatureF,Dew PointF,Humidity,Sea Level PressureIn,VisibilityMPH,Wind Direction,Wind SpeedMPH,Gust SpeedMPH,PrecipitationIn,Events,Conditions,WindDirDegrees,DateUTC
12:53 AM,42.1,23.0,47,29.89,10.0,SW,23.0,-,N/A,,Clear,230,2014-02-18 07:53:00
1:53 AM,43.0,21.9,43,29.90,10.0,SW,26.5,33.4,N/A,,Mostly Cloudy,230,2014-02-18 08:53:00
2:53 AM,39.0,30.9,73,29.98,10.0,West,20.7,29.9,N/A,,Mostly Cloudy,270,2014-02-18 09:53:00
3:53 AM,37.0,32.0,82,29.99,10.0,West,17.3,-,N/A,,Overcast,260,2014-02-18 10:53:00
4:53 AM,37.9,30.9,76,30.04,10.0,SSW,8.1,-,N/A,,Scattered Clouds,210,2014-02-18 11:53:00
5:53 AM,37.9,30.0,73,30.06,10.0,SSW,10.4,-,N/A,,Overcast,210,2014-02-18 12:53:00
6:53 AM,36.0,28.0,73,30.09,10.0,SSW,11.5,-,N/A,,Clear,210,2014-02-18 13:53:00
7:53 AM,35.1,27.0,72,30.12,10.0,SSW,9.2,-,N/A,,Clear,200,2014-02-18 14:53:00
8:53 AM,39.0,27.0,62,30.13,10.0,SW,9.2,-,N/A,,Mostly Cloudy,220,2014-02-18 15:53:00
9:53 AM,41.0,27.0,57,30.12,10.0,SSW,11.5,-,N/A,,Overcast,200,2014-02-18 16:53:00
10:53 AM,44.1,28.0,53,30.10,10.0,SSW,11.5,-,N/A,,Overcast,200,2014-02-18 17:53:00
11:53 AM,46.9,25.0,42,30.09,10.0,SW,6.9,-,N/A,,Partly Cloudy,230,2014-02-18 18:53:00
12:53 PM,46.9,24.1,41,30.06,10.0,West,4.6,-,N/A,,Clear,260,2014-02-18 19:53:00
1:53 PM,48.9,24.1,38,30.05,10.0,NW,4.6,-,N/A,,Clear,310,2014-02-18 20:53:00
2:53 PM,50.0,27.0,41,30.00,10.0,SE,9.2,-,N/A,,Scattered Clouds,130,2014-02-18 21:53:00
3:53 PM,51.1,27.0,39,29.98,10.0,South,6.9,-,N/A,,Overcast,190,2014-02-18 22:53:00
4:53 PM,51.1,27.0,39,29.96,10.0,WSW,3.5,-,N/A,,Overcast,250,2014-02-18 23:53:00
5:53 PM,48.0,28.0,46,29.94,10.0,NNE,3.5,-,N/A,,Overcast,30,2014-02-19 00:53:00
6:53 PM,42.1,30.9,65,29.93,10.0,SE,8.1,-,N/A,,Clear,130,2014-02-19 01:53:00
7:53 PM,43.0,28.0,56,29.91,10.0,South,11.5,-,N/A,,Mostly Cloudy,180,2014-02-19 02:53:00
8:53 PM,46.0,25.0,44,29.83,10.0,South,18.4,-,N/A,,Partly Cloudy,180,2014-02-19 03:53:00
9:53 PM,46.0,25.0,44,29.80,10.0,South,16.1,-,N/A,,Mostly Cloudy,170,2014-02-19 04:53:00
10:53 PM,48.0,25.0,41,29.77,10.0,South,18.4,-,N/A,,Clear,180,2014-02-19 05:53:00
11:53 PM,48.9,23.0,36,29.71,10.0,South,16.1,-,N/A,,Mostly Cloudy,170,2014-02-19 06:53:00